sat.trackr.live / text

‹ back to catalog

STARLINK-5860

NORAD 57052 · 2023-088E

PAYLOAD ACTIVE UNKNOWN

§ Identity

Operator
Country
US
Launch date
2023-06-22
Launch site
AFWTR
Launch vehicle
Mass (kg)
RCS (m²)

Purposes: comms

External: N2YO · Heavens-Above · Gunter

§ Orbital elements

Epoch: 2026-05-25T01:07:05.109888Z

Period
94.27 min
Inclination
43.0060°
Eccentricity
0.0001509
Mean motion
15.27575812 rev/d
Perigee alt
482.0 km
Apogee alt
484.1 km
Semi-major
6,861.2 km
B*
3.0391e-5
RAAN
39.1500°
Arg perigee
256.4175°
Mean anomaly
103.6508°
Rev number
16,201

§ Raw data

STARLINK-58601 57052U 23088E   26145.04658692  .00000574  00000+0  30391-4 0  99932 57052  43.0060  39.1500 0001509 256.4175 103.6508 15.27575812162013

JSON: /api/v1/satellites/57052 · /tle

For live sub-satellite position, see the globe view (requires WebGL).

§ Visibility from observer

Set your observer location to see the next 7 days of passes ≥ 10°. The values pass through the URL so the page stays shareable.

No JS? Fill the form by hand. The geolocation button needs JavaScript.